Showing default

CENTISPACE-1 S13, 62582

Orbit data source: Space-Track

CENTISPACE-1 S13, 62582 is a payload satellite owned by Centispace (CN) in LEO that was launched on Mon, 13 Jan 2025 UTC via a JIELONG-3 launch vehicle from the Yellow Sea Launch Area, China (YSLA). Payload-class satellites include a variety of spacecraft equipped with specific instruments for various scientific and technological missions. These include communications satellites like Starlink; space stations such as the ISS; scientific satellites like the Hubble; Earth observation satellites from companies like Planet Labs, Umbra, and HawkEye 360; GPS; miniature CubeSats for education and research; and military/defense satellites.

Loading next visibility...
Identifier
62582, 2025-007H
Orbit
LEO
Country
Flag of CNCN / PRC
Related business
Manufacturer
DFH Shenzhen
Mission
Operational Commercial Nav/Com
Bus & Motor
WK01, Unknown motor
Mass
140 kg wet, 140 kg dry
Launch date (UTC)
2025-01-13 (1 year ago)
Launch vehicle
JIELONG-3
Launch site
Yellow Sea Launch Area, China (YSLA)
Object type
Payload
Rocket body
Debris
Shape & HBR
Box + 2 Pan, 1.0 m
Radar Cross Section
0.833 m², Medium (>0.1 m² and < 1m²)

Expand to show TLE details & history
Last TLE update: 17 hours ago

TLE from 17 hours ago
0 CENTISPACE-1 S13
1 62582U 25007H   26034.04383229 -.00000112  00000-0  24662-4 0  9992
2 62582  54.9806  42.7960 0008512 278.5772  81.4228 13.98151119 56161
Epoch: 2026-02-03T01:03Z
TLE epoch observation values (Epoch: 2026-02-03T01:03:07.109Z)
Latitude
-0.00001°
Longitude
-106.21406°
Altitude
900.316 km
Speed
7.403 km/s
True Right ascension
02h 51m 11s
True Declination
0° 00' 00"
Sunlit
Object was in daylight at epoch
Visualization orbit readout
Latitude
Unknown
Longitude
Unknown
Altitude
Unknown
Speed
Unknown
Apparent Right ascension
Unknown
Apparent Declination
Unknown
Sunlit
N/A
Visualization observer readout
Local Sidereal Time
20:14:50
Azimuth
Unknown
Elevation
Unknown
Doppler factor
Unknown
Orbital elements
Apogee altitude
906.368 km
Perigee altitude
893.977 km
Semi-major axis
7,278.309 km
Eccentricity
0.00085
Inclination
54.9806°
RAAN
42.796°
Arg. of periapsis
278.5772°
True anomaly
81.51926°
Mean anomaly
81.4228°
Eccentric anomaly
81.47103°
Mean motion
3.4954 °/min
Orbital period
102.99 mins
BSTAR
0.000024662
Loading maneuver chart data...
Computing Atmospheric mass density...
Loading historical data...
Loading historical data...
Loading historical data...
Loading historical data...
Loading historical data...
Loading historical data...
Loading historical data...

Documentation

Showing up to 5 results
|